MED1 KSAN-

Flight info

Callsign MED1
Flight time N/A
Altitude VFR/025
Route VFR N
Aircraft H60/M-VGD/C

Departure

Time 2026-04-25 20:36
Airport San Diego International Airport (KSAN)

Arrival

Time N/A
Airport -
Time Latitude Longitude Altitude Speed Heading
2026-04-25 20:30 32.73446 -117.17915 15 ft 0 kts 165°
2026-04-25 20:35 32.73445 -117.17915 16 ft 2 kts 160°
2026-04-25 20:35 32.73430 -117.17911 40 ft 4 kts 124°
2026-04-25 20:35 32.73452 -117.17910 126 ft 6 kts 43°
2026-04-25 20:36 32.73558 -117.17853 191 ft 39 kts 34°
2026-04-25 20:36 32.73834 -117.17663 522 ft 44 kts 20°
2026-04-25 20:36 32.74237 -117.17473 780 ft 80 kts 13°
2026-04-25 20:36 32.74874 -117.17331 775 ft 99 kts
2026-04-25 20:37 32.75598 -117.17222 1034 ft 114 kts
2026-04-25 20:37 32.76424 -117.16879 927 ft 133 kts 13°
2026-04-25 20:37 32.77324 -117.16540 829 ft 137 kts 11°
2026-04-25 20:37 32.78219 -117.16290 892 ft 128 kts
2026-04-25 20:38 32.79075 -117.16085 880 ft 119 kts
2026-04-25 20:38 32.79750 -117.15888 895 ft 75 kts
2026-04-25 20:38 32.80031 -117.15706 729 ft 16 kts 28°
2026-04-25 20:38 32.80020 -117.15653 598 ft 12 kts 107°
2026-04-25 20:39 32.79977 -117.15479 522 ft 18 kts 106°
2026-04-25 20:39 32.79955 -117.15406 480 ft 11 kts 103°
2026-04-25 20:39 32.79933 -117.15356 481 ft 9 kts 64°
2026-04-25 20:39 32.79923 -117.15373 491 ft 1 kts 51°
2026-04-25 20:40 32.79940 -117.15349 467 ft 0 kts 40°
2026-04-25 20:40 32.79941 -117.15347 466 ft 0 kts 37°